Location: Ca�n Batista
(41.4099°N, 1.7752°E)
Time: 14:41:37
(UTC+00:00)

Cosmos 1602 - Pass Details

Date: 03 March 2021
Orbit: 512 x 534 km, 82.5° (Epoch: 21 April)

Event Time Altitude Azimuth Distance (km) Brightness Sun altitude
Rises 18:38:30 0° 193° (SSW) 2,643 7.5 -10.6°
Reaches altitude 10° 18:40:38 10° 197° (SSW) 1,763 6.6 -11.0°
Maximum altitude 18:44:29 64° 279° (W) 590 4.2 -11.8°
Drops below altitude 10° 18:48:23 10° 2° (N) 1,790 6.4 -12.5°
Sets 18:50:34 0° 5° (N) 2,687 7.3 -12.9°
